Regional Weather Roundup
Issued by NWS

Home | Current Version | Previous Version | Text Only | Print | Product List | Glossary On
Versions: 1 2 3 4 5 6 7 8 9 10 11 12 13 14 15 16 17 18 19 20 21 22 23 24 25 26 27 28 29 30 31 32 33 34 35 36 37 38 39 40 41 42 43 44 45 46 47 48 49 50
000
ASUS46 KPQR 191410
RWROR

OREGON REGIONAL WEATHER ROUNDUP
NATIONAL WEATHER SERVICE PORTLAND OR
700 AM PDT TUE SEP 19 2017

NOTE: "FAIR" INDICATES FEW OR NO CLOUDS BELOW 12,000 FEET WITH
NO SIGNIFICANT WEATHER AND/OR OBSTRUCTIONS TO VISIBILITY.

ORZ001>013-191500-
NORTHWEST OREGON


CITY           SKY/WX    TMP DP  RH WIND       PRES   REMARKS
ASTORIA        MOCLDY    54  49  83 SW10      29.74R
NEWPORT        MOCLDY    52  50  93 S7        29.89S FOG
PORTLAND       CLOUDY    52  49  89 S10       29.80S
VANCOUVER WA   CLOUDY    53  51  93 VRB3      29.79S
SCAPPOOSE      LGT RAIN  50  49  96 SE5       29.78S
HILLSBORO      MOCLDY    51  48  89 VRB5      29.79R
AURORA         CLOUDY    52  48  86 S9        29.83R
MCMINNVILLE    MOCLDY    50  49  96 SW10      29.83R
SALEM          LGT RAIN  52  48  86 CALM      29.84R
EUGENE         MOCLDY    51  50  96 S9        29.90R
$$

ORZ021-028-191500-
SOUTHWEST OREGON


CITY           SKY/WX    TMP DP  RH WIND       PRES   REMARKS
NORTH BEND     CLOUDY    57  53  86 SW9       29.96R
BROOKINGS      LGT RAIN  56  55  97 VRB3      30.03R
ROSEBURG       CLOUDY    53  49  86 SE7       29.95S
SEXTON SUMMIT  FOG       41  39  93 VRB7      29.97S VSB 1
GRANTS PASS    CLOUDY    50  50 100 CALM      30.03S
MEDFORD        MOCLDY    50  48  93 W3        29.99R
$$

ORZ014>016-041-191500-
COLUMBIA GORGE


CITY           SKY/WX    TMP DP  RH WIND       PRES   REMARKS
TROUTDALE      CLOUDY    53  48  83 SW7       29.80S
HOOD RIVER     CLOUDY    46  46 100 CALM      29.79R
THE DALLES     CLOUDY    50  45  83 CALM      29.78R
$$

ORZ029>031-041-044-049-050-061>064-502-503-505>511-191500-
EASTERN OREGON


CITY           SKY/WX    TMP DP  RH WIND       PRES   REMARKS
MADRAS         CLOUDY   N/A N/A N/A MISG      29.87R
REDMOND        LGT RAIN  42  37  82 SW6       29.86R
BEND           MOCLDY    41  37  87 SW8       29.87R
PRINEVILLE     CLOUDY    41  37  87 S7        29.86S
KLAMATH FALLS  CLOUDY    44  37  76 W6        29.98R
LAKEVIEW       MOCLDY    41  32  70 SW17G23   29.97R
HERMISTON      CLOUDY    53  43  68 SW12      29.76R
PENDLETON      LGT RAIN  50  42  74 SW14      29.76R
JOHN DAY       MOCLDY    45  36  71 SW13      29.83R
MEACHAM        LGT RAIN  40  38  93 CALM      29.78R FOG
LA GRANDE      LGT RAIN  43  40  89 S5        29.80S
BAKER CITY     MOCLDY    39  35  86 SW3       29.80R
BURNS          CLOUDY    42  32  67 SW9       29.89R
ROME             N/A     47  34  60 SW13G24   29.89R
ONTARIO        CLOUDY    47  41  80 S6        29.85R
$$



USA.gov is the U.S. government's official web portal to all federal, state and local government web resources and services.